User: anonymous
Location: Stull Observatory
(42.2506°N, 77.7903°W)
Time: 15:56:59
(UTC-04:00)
Language:

Abrixas rocket - Orbit

View from above orbital plane
View from above orbital plane
View from above satellite
View from above satellite

Ground track
Ground track

The orbit data is extracted from the following two-line orbital elements,

1 25723U 99022C   14293.79360813  .00023532  00000-0  72930-3 0  7815
2 25723 048.4236 233.8861 0016540 094.6015 352.1041 15.33092366856418
Epoch (UTC): 20 October 2014 19:02:47
Eccentricity: 0.0016540
inclination: 48.4236°
perigee height: 455 km
apogee height: 478 km
right ascension of ascending node: 233.8861°
argument of perigee: 94.6015°
revolutions per day: 15.33092366
mean anomaly at epoch: 352.1041°
orbit number at epoch: 85641

The dashed part of the orbit path shows where the satellite is in the earth's shadow,  

DLR